�������l�o���
Date,Time,MP-1(��Sv/h),MP-2(��Sv/h),MP-3(��Sv/h),MP-4(��Sv/h),MP-5(��Sv/h),MP-6(��Sv/h),MP-7(��Sv/h),MP-8(��Sv/h),����,����(m/s),���J
2019/01/09,00:00,0.788,1.178,0.827,1.510,1.073,0.452,0.802,0.758,�k,7.2,��
2019/01/09,00:10,0.787,1.179,0.829,1.505,1.075,0.451,0.799,0.758,�k�k��,7.0,��
2019/01/09,00:20,0.787,1.177,0.826,1.509,1.073,0.452,0.802,0.758,�k�k��,6.7,��
2019/01/09,00:30,0.788,1.178,0.825,1.507,1.074,0.453,0.799,0.758,�k�k��,6.6,��
2019/01/09,00:40,0.788,1.179,0.824,1.506,1.077,0.452,0.799,0.759,�k�k��,6.6,��
2019/01/09,00:50,0.788,1.180,0.824,1.507,1.073,0.452,0.802,0.760,�k�k��,6.9,��
2019/01/09,01:00,0.788,1.177,0.824,1.505,1.074,0.453,0.801,0.758,�k�k��,6.9,��
2019/01/09,01:10,0.789,1.180,0.826,1.509,1.073,0.453,0.801,0.759,�k�k��,5.5,��
2019/01/09,01:20,0.789,1.180,0.826,1.510,1.072,0.453,0.801,0.759,�k��,5.1,��
2019/01/09,01:30,0.786,1.179,0.824,1.509,1.075,0.453,0.800,0.761,�k�k��,4.8,��
2019/01/09,01:40,0.787,1.180,0.826,1.506,1.074,0.453,0.801,0.759,�k�k��,6.1,��
2019/01/09,01:50,0.787,1.179,0.826,1.508,1.075,0.454,0.800,0.760,�k�k��,5.7,��
2019/01/09,02:00,0.786,1.180,0.829,1.508,1.075,0.454,0.801,0.759,�k�k��,6.3,��
2019/01/09,02:10,0.791,1.178,0.830,1.512,1.075,0.452,0.801,0.760,�k,6.3,��
2019/01/09,02:20,0.787,1.179,0.829,1.508,1.073,0.453,0.802,0.761,�k�k��,6.0,��
2019/01/09,02:30,0.787,1.180,0.828,1.508,1.073,0.452,0.800,0.759,�k�k��,7.0,��
2019/01/09,02:40,0.787,1.179,0.827,1.509,1.073,0.453,0.799,0.760,�k�k��,6.6,��
2019/01/09,02:50,0.788,1.177,0.830,1.509,1.074,0.453,0.802,0.760,�k�k��,6.7,��
2019/01/09,03:00,0.787,1.179,0.828,1.506,1.074,0.452,0.802,0.760,�k�k��,6.1,��
2019/01/09,03:10,0.789,1.177,0.828,1.508,1.073,0.453,0.801,0.759,�k�k��,6.5,��
2019/01/09,03:20,0.787,1.175,0.827,1.507,1.075,0.454,0.800,0.759,�k�k��,7.7,��
2019/01/09,03:30,0.786,1.181,0.828,1.509,1.075,0.453,0.800,0.759,�k��,5.2,��
2019/01/09,03:40,0.788,1.179,0.828,1.510,1.075,0.452,0.801,0.759,�k��,4.4,��
2019/01/09,03:50,0.785,1.178,0.828,1.508,1.072,0.453,0.801,0.758,�k�k��,4.4,��
2019/01/09,04:00,0.787,1.177,0.828,1.506,1.074,0.453,0.800,0.759,�k�k��,4.4,��
2019/01/09,04:10,0.789,1.179,0.826,1.510,1.071,0.451,0.800,0.760,�k,4.6,��
2019/01/09,04:20,0.787,1.176,0.825,1.506,1.075,0.451,0.801,0.759,�k�k��,5.4,��
2019/01/09,04:30,0.788,1.178,0.826,1.507,1.073,0.451,0.798,0.758,�k�k��,5.4,��
2019/01/09,04:40,0.789,1.178,0.828,1.508,1.075,0.451,0.801,0.760,�k�k��,4.9,��
2019/01/09,04:50,0.787,1.179,0.825,1.509,1.073,0.451,0.800,0.758,�k�k��,6.0,��
2019/01/09,05:00,0.788,1.178,0.826,1.506,1.074,0.453,0.798,0.759,�k��,6.1,��
2019/01/09,05:10,0.786,1.179,0.827,1.505,1.073,0.451,0.800,0.760,�k��,6.0,��
2019/01/09,05:20,0.789,1.178,0.826,1.511,1.073,0.453,0.800,0.759,�k�k��,6.0,��
2019/01/09,05:30,0.786,1.177,0.826,1.508,1.074,0.451,0.800,0.760,�k�k��,5.7,��
2019/01/09,05:40,0.786,1.179,0.826,1.506,1.072,0.451,0.800,0.759,�k�k��,6.6,��
2019/01/09,05:50,0.788,1.177,0.829,1.505,1.073,0.452,0.799,0.758,�k�k��,7.7,��
2019/01/09,06:00,0.786,1.178,0.826,1.506,1.073,0.450,0.801,0.758,�k�k��,6.6,��
2019/01/09,06:10,0.788,1.176,0.826,1.505,1.074,0.452,0.799,0.758,�k��,8.6,��
2019/01/09,06:20,0.788,1.176,0.828,1.506,1.072,0.450,0.800,0.758,���k��,13.8,��
2019/01/09,06:30,0.787,1.178,0.826,1.507,1.072,0.451,0.799,0.760,���k��,11.7,��
2019/01/09,06:40,0.787,1.176,0.826,1.506,1.072,0.450,0.800,0.758,���k��,10.5,��
2019/01/09,06:50,0.785,1.171,0.826,1.505,1.074,0.451,0.801,0.759,���k��,11.7,��
2019/01/09,07:00,0.787,1.173,0.824,1.506,1.073,0.450,0.800,0.757,���k��,9.8,��
2019/01/09,07:10,0.785,1.176,0.826,1.502,1.072,0.451,0.798,0.759,���k��,10.3,��
2019/01/09,07:20,0.783,1.173,0.825,1.504,1.070,0.449,0.798,0.759,���k��,8.4,��
2019/01/09,07:30,0.783,1.173,0.824,1.503,1.072,0.449,0.798,0.760,���k��,9.4,��
2019/01/09,07:40,0.785,1.175,0.824,1.503,1.073,0.449,0.798,0.758,���k��,10.7,��
2019/01/09,07:50,0.787,1.178,0.824,1.505,1.071,0.449,0.800,0.757,���k��,11.3,��
2019/01/09,08:00,0.786,1.176,0.826,1.506,1.073,0.453,0.798,0.760,���k��,11.6,��
2019/01/09,08:10,0.788,1.177,0.827,1.504,1.073,0.452,0.800,0.757,���k��,10.6,��
2019/01/09,08:20,0.787,1.178,0.827,1.504,1.073,0.450,0.798,0.760,���k��,10.9,��
2019/01/09,08:30,0.786,1.175,0.827,1.503,1.074,0.452,0.799,0.760,���k��,11.6,��
2019/01/09,08:40,0.786,1.178,0.826,1.507,1.073,0.453,0.799,0.758,�k��,12.5,��
2019/01/09,08:50,0.788,1.174,0.825,1.505,1.074,0.451,0.801,0.760,�k��,11.3,��
2019/01/09,09:00,0.787,1.177,0.824,1.507,1.072,0.451,0.798,0.759,�k��,9.1,��
2019/01/09,09:10,0.788,1.176,0.828,1.505,1.073,0.454,0.798,0.758,�k��,9.7,��
2019/01/09,09:20,0.787,1.174,0.827,1.507,1.072,0.451,0.799,0.759,�k��,11.6,��
2019/01/09,09:30,0.787,1.178,0.822,1.506,1.075,0.452,0.800,0.760,�k��,10.6,��
2019/01/09,09:40,0.789,1.175,0.822,1.509,1.074,0.452,0.800,0.760,���k��,12.4,��
2019/01/09,09:50,0.787,1.174,0.824,1.507,1.070,0.452,0.801,0.759,�k��,10.2,��
2019/01/09,10:00,0.788,1.176,0.824,1.502,1.071,0.450,0.801,0.755,�k��,12.4,��
2019/01/09,10:10,0.790,1.174,0.822,1.502,1.072,0.451,0.801,0.754,�k��,12.4,��
2019/01/09,10:20,0.788,1.175,0.824,1.503,1.072,0.452,0.800,0.755,�k��,10.5,��
2019/01/09,10:30,0.790,1.175,0.827,1.503,1.073,0.451,0.802,0.760,�k��,11.6,��
2019/01/09,10:40,0.786,1.179,0.828,1.503,1.073,0.452,0.800,0.759,�k��,14.1,��
2019/01/09,10:50,0.786,1.180,0.828,1.501,1.075,0.451,0.802,0.759,�k��,11.6,��
2019/01/09,11:00,0.780,1.177,0.828,1.503,1.074,0.450,0.801,0.758,�k��,12.5,��
2019/01/09,11:10,0.784,1.177,0.826,1.502,1.077,0.451,0.801,0.758,�k��,14.4,��
2019/01/09,11:20,0.787,1.177,0.827,1.501,1.075,0.452,0.802,0.761,�k��,13.8,��
2019/01/09,11:30,0.790,1.165,0.828,1.504,1.076,0.452,0.804,0.759,�k��,13.8,��
2019/01/09,11:40,0.787,1.165,0.828,1.509,1.077,0.451,0.802,0.760,�k��,13.0,��
2019/01/09,11:50,0.789,1.155,0.828,1.507,1.075,0.452,0.804,0.760,�k�k��,13.0,��
2019/01/09,12:00,0.790,1.177,0.826,1.511,1.075,0.452,0.801,0.759,�k�k��,12.7,��
2019/01/09,12:10,0.789,1.183,0.828,1.509,1.077,0.452,0.802,0.760,�k��,11.3,��
2019/01/09,12:20,0.789,1.177,0.826,1.507,1.077,0.450,0.802,0.759,�k�k��,14.7,��
2019/01/09,12:30,0.790,1.177,0.827,1.507,1.079,0.451,0.803,0.759,�k�k��,11.3,��
2019/01/09,12:40,0.789,1.177,0.827,1.507,1.077,0.452,0.800,0.758,�k�k��,13.0,��
2019/01/09,12:50,0.790,1.175,0.827,1.509,1.076,0.451,0.802,0.760,�k��,11.9,��
2019/01/09,13:00,0.790,1.176,0.827,1.511,1.077,0.452,0.802,0.760,�k��,11.1,��
2019/01/09,13:10,0.790,1.175,0.828,1.509,1.076,0.451,0.803,0.759,�k��,10.8,��
2019/01/09,13:20,0.789,1.176,0.827,1.507,1.075,0.450,0.803,0.759,�k��,14.7,��
2019/01/09,13:30,0.791,1.179,0.827,1.511,1.078,0.451,0.800,0.760,�k��,10.9,��
2019/01/09,13:40,0.790,1.175,0.829,1.510,1.077,0.451,0.801,0.760,�k��,9.8,��
2019/01/09,13:50,0.790,1.175,0.827,1.511,1.078,0.450,0.801,0.759,�k��,9.8,��
2019/01/09,14:00,0.790,1.175,0.828,1.505,1.077,0.450,0.801,0.760,�k��,12.7,��
2019/01/09,14:10,0.788,1.176,0.828,1.508,1.077,0.451,0.802,0.760,�k��,9.6,��
2019/01/09,14:20,0.791,1.176,0.826,1.509,1.077,0.453,0.803,0.761,�k��,8.9,��
2019/01/09,14:30,0.790,1.175,0.827,1.508,1.078,0.451,0.801,0.761,�k��,9.8,��
2019/01/09,14:40,0.789,1.178,0.827,1.506,1.079,0.451,0.801,0.759,�k��,7.8,��
2019/01/09,14:50,0.789,1.176,0.825,1.510,1.078,0.450,0.801,0.759,�k��,9.0,��
2019/01/09,15:00,0.789,1.176,0.827,1.508,1.079,0.451,0.802,0.760,�k�k��,7.1,��
2019/01/09,15:10,0.789,1.178,0.827,1.511,1.077,0.452,0.801,0.759,�k�k��,9.6,��
2019/01/09,15:20,0.790,1.178,0.827,1.509,1.077,0.452,0.802,0.760,�k��,12.8,��
2019/01/09,15:30,0.790,1.177,0.829,1.510,1.076,0.453,0.801,0.762,�k��,10.5,��
2019/01/09,15:40,0.789,1.178,0.829,1.508,1.078,0.451,0.801,0.759,�k��,13.5,��
2019/01/09,15:50,0.791,1.179,0.828,1.510,1.079,0.450,0.803,0.761,�k��,11.7,��
2019/01/09,16:00,0.790,1.179,0.825,1.511,1.080,0.450,0.802,0.761,�k��,7.1,��
2019/01/09,16:10,0.788,1.182,0.826,1.507,1.077,0.451,0.799,0.759,���k��,5.4,��
2019/01/09,16:20,0.789,1.180,0.827,1.509,1.074,0.450,0.801,0.759,�k��,9.2,��
2019/01/09,16:30,0.788,1.181,0.825,1.507,1.079,0.450,0.803,0.760,�k��,6.0,��
2019/01/09,16:40,0.789,1.183,0.825,1.512,1.076,0.450,0.798,0.759,���k��,4.5,��
2019/01/09,16:50,0.787,1.180,0.825,1.509,1.078,0.450,0.800,0.759,�k��,5.0,��
2019/01/09,17:00,0.790,1.181,0.826,1.506,1.078,0.451,0.800,0.760,�k��,6.3,��
2019/01/09,17:10,0.786,1.181,0.827,1.512,1.077,0.451,0.801,0.760,�k��,5.4,��
2019/01/09,17:20,0.787,1.182,0.828,1.509,1.076,0.450,0.800,0.759,�k��,5.0,��
2019/01/09,17:30,0.787,1.179,0.827,1.507,1.074,0.449,0.800,0.759,�k��,2.2,��
2019/01/09,17:40,0.788,1.183,0.828,1.509,1.076,0.451,0.799,0.758,�k��,1.7,��
2019/01/09,17:50,0.787,1.181,0.827,1.509,1.076,0.450,0.798,0.759,���k��,2.8,��
2019/01/09,18:00,0.788,1.180,0.826,1.508,1.075,0.448,0.797,0.757,���쐼,1.9,��
2019/01/09,18:10,0.788,1.181,0.827,1.510,1.073,0.450,0.799,0.758,���쐼,3.0,��
2019/01/09,18:20,0.787,1.180,0.826,1.510,1.074,0.450,0.797,0.758,���쐼,4.5,��
2019/01/09,18:30,0.788,1.180,0.825,1.509,1.075,0.450,0.799,0.757,��,3.6,��
2019/01/09,18:40,0.786,1.181,0.825,1.509,1.077,0.449,0.799,0.758,���쐼,3.2,��
2019/01/09,18:50,0.787,1.181,0.824,1.507,1.075,0.449,0.797,0.757,�쐼,4.0,��
2019/01/09,19:00,0.789,1.180,0.827,1.508,1.074,0.451,0.802,0.757,�쐼,4.2,��
2019/01/09,19:10,0.787,1.179,0.826,1.510,1.075,0.451,0.798,0.758,�쐼,4.3,��
2019/01/09,19:20,0.785,1.180,0.822,1.508,1.075,0.451,0.797,0.757,���쐼,4.2,��
2019/01/09,19:30,0.788,1.180,0.823,1.509,1.074,0.451,0.798,0.757,���쐼,4.4,��
2019/01/09,19:40,0.786,1.180,0.823,1.509,1.076,0.451,0.798,0.759,���쐼,3.7,��
2019/01/09,19:50,0.787,1.179,0.822,1.508,1.075,0.449,0.798,0.757,�쐼,3.1,��
2019/01/09,20:00,0.786,1.181,0.824,1.507,1.075,0.450,0.799,0.758,�쐼,3.7,��
2019/01/09,20:10,0.785,1.179,0.823,1.508,1.075,0.451,0.797,0.757,���쐼,2.8,��
2019/01/09,20:20,0.786,1.181,0.822,1.508,1.074,0.449,0.798,0.758,���쐼,2.6,��
2019/01/09,20:30,0.786,1.180,0.823,1.510,1.075,0.450,0.798,0.757,���쐼,1.7,��
2019/01/09,20:40,0.787,1.181,0.823,1.507,1.074,0.450,0.798,0.758,��쐼,1.9,��
2019/01/09,20:50,0.787,1.177,0.824,1.508,1.075,0.448,0.798,0.759,��,1.7,��
2019/01/09,21:00,0.788,1.178,0.823,1.508,1.075,0.450,0.798,0.757,��쐼,1.9,��
2019/01/09,21:10,0.786,1.179,0.823,1.508,1.076,0.451,0.798,0.757,�쐼,1.5,��
2019/01/09,21:20,0.787,1.178,0.823,1.506,1.077,0.449,0.800,0.756,��쐼,2.2,��
2019/01/09,21:30,0.786,1.178,0.824,1.510,1.074,0.451,0.798,0.757,��,2.3,��
2019/01/09,21:40,0.785,1.180,0.825,1.507,1.072,0.448,0.799,0.756,��,2.3,��
2019/01/09,21:50,0.785,1.178,0.825,1.507,1.070,0.449,0.797,0.757,��,2.9,��
2019/01/09,22:00,0.786,1.181,0.825,1.507,1.075,0.449,0.799,0.758,��쓌,2.6,��
2019/01/09,22:10,0.785,1.175,0.826,1.508,1.074,0.450,0.796,0.757,��쐼,2.3,��
2019/01/09,22:20,0.786,1.179,0.823,1.507,1.074,0.448,0.797,0.756,��,2.6,��
2019/01/09,22:30,0.786,1.179,0.824,1.506,1.074,0.449,0.797,0.758,��,2.3,��
2019/01/09,22:40,0.786,1.179,0.825,1.505,1.072,0.449,0.798,0.756,��쓌,1.9,��
2019/01/09,22:50,0.787,1.180,0.823,1.509,1.074,0.449,0.799,0.756,���쓌,1.1,��
2019/01/09,23:00,0.785,1.178,0.823,1.508,1.074,0.450,0.797,0.758,���쓌,0.8,��
2019/01/09,23:10,0.785,1.177,0.826,1.508,1.072,0.450,0.798,0.758,��쐼,0.9,��
2019/01/09,23:20,0.786,1.179,0.824,1.505,1.075,0.451,0.797,0.756,���쐼,0.9,��
2019/01/09,23:30,0.788,1.179,0.824,1.508,1.073,0.450,0.796,0.757,�쐼,1.2,��
2019/01/09,23:40,0.784,1.178,0.824,1.507,1.073,0.450,0.798,0.757,���쐼,2.0,��
2019/01/09,23:50,0.787,1.176,0.825,1.506,1.075,0.449,0.798,0.757,��,2.6,��
